Terug naar catalogus

COSMOS 1691 DEB

ActiefPO
NORAD 43318·DEBRIS·🇷🇺 Russia

Gelanceerd Oct 9, 1985 vanaf Plesetsk Cosmodrome

Loading…

Volgende Passages (komende 24 uur)

TLE

VerouderendSource: Space-Track

Epoch: Sep 4, 2026, 13:42 UTC

1 43318U 85094AC  26247.57114767  .00000247  00000-0  99796-3 0  9990
2 43318  82.5844 346.2558 0014407   2.6245 357.4931 12.82633033554838

Volg COSMOS 1691 DEB in realtime met AllMySat

Download on the App Store